{"data":{"norad_id":57641,"epoch":"2026-05-25T00:11:14.745984Z","epoch_age_seconds":70794,"freshness":"FRESH","line1":"1 57641U 23122K   26145.00780956  .00001965  00000+0  80930-4 0  9990","line2":"2 57641  43.0026  21.0846 0001278 270.4355  89.6350 15.27578041153881","mean_motion":15.27578041,"eccentricity":0.0001278,"inclination_deg":43.0026,"raan_deg":21.0846,"arg_perigee_deg":270.4355,"mean_anomaly_deg":89.635,"bstar":8.093e-5,"rev_number":15388,"period_min":94.266869603423,"perigee_km":482.17810166393,"apogee_km":483.93182232941,"semimajor_km":6861.1919619967,"source":"CELESTRAK","updated_at":"2026-05-25T13:38:18.364023Z"}}